Погода в Ашхабаде

Поиск расширенной информации на нашем сайте:

Полезная информация:

Новости сайта



02.01.2020
Опубликован Долгосрочный прогноз погоды по городам России и ближнего зарубежья на январь 2020 года.
Карты: Прогноз на январь и февраль 2020 года, Сравнение прогнозируемой аномалии приземной температуры воздуха на январь 2020 года по разным моделям.




Погода в Ашхабаде - сегодня

Время (UTC), дата Ветер
(°,м/с) 
Видим.   Явления Облачность Т
(°С)
Тd
(°С)
f(%) Тe
(°С)
Pmin
(гПа)
dP
(гПа)
Po
(мм)
O2
(г/м3)
Тmin Tmax R s Состояние
почвы
12 16.04.21 300 (СЗ) 10 км  гроза без осадков  10/6 1500 м кучево-дожд., средняя, верхняя 
[Cb cap|Ac und|Ci sp]
+24.2 +5.8 31 +24  1015.3  -0.3  743  274           
15 16.04.21 220 (ЮЗ) 10 км  в посл. час ливневой дождь{гроза}  10/6 1500 м кучево-дожд., средняя 
[Cb cap|Ac und]
+21 +9.7 48 +22  1016.1  0.5  744  277      0.0    полностью
покрыта
пылью 
18 16.04.21 270 (З) 10 км  {гроза, ливн. осадки}  10/6 1500 м кучево-дожд., средняя 
[Cb cap|Ac und]
+21.3 +7.8 42 +21  1017.9  1.9  745  277    +26.8  0.0     
21 16.04.21 290 (З) 10 км    10/6 1500 м кучево-дожд., средняя 
[Cb cap|Ac und]
+19.8 +8 46 +20  1018.3  0.2  745  279           
00 17.04.21 270 (З) 10 км    10/6 1500 м кучево-дожд., средняя 
[Cb cap|Ac und]
+19.4 +7.4 46 +20  1019.2  0.8  746  279           
03 17.04.21 270 (З) 10 км    9/6 1500 м кучево-дожд., средняя 
[Cb cap|Ac trans]
+17 +9.3 60 +17  1021.3  1.8  747  282  +17        сухая 
06 17.04.21 340 (С) 10 км    5/3 1500 м средняя 
[Sc|Ac trans]
+21.4 +8 42 +21  1021.3  0.5  748  278  +17         
09 17.04.21 340 (С) 10 км    3/3 1500 м 
[Sc]
+26.4 +1.7 20 +26  1019.8  -1.2  747  274           
12 17.04.21 320 (СЗ) 10 км    4/4 1500 м 
[Sc]
+27.2 +1.5 19 +27  1018  -1.6  746  273           
15 17.04.21 310 (СЗ) 10 км    3/3 1500 м 
[Sc]
+25.2 +1.3 21 +25  1018.4  0.2  746  275    +27.4       
18 17.04.21 200 (Ю) 10 км    ясно 
+20.2 +1.3 28 +20  1020  1.1  747  280    +27.4       
21 17.04.21 240 (ЮЗ) 10 км    3/0 верхняя 
[Ci fib]
+17.5 +3 38 +19  1019.9  -0.4  746  282           
00 18.04.21 тихо ()   10 км    ясно 
+15.5 +4.6 48 +16  1019.2  -0.6  746  284           
03 18.04.21 170 (Ю) 10 км    3/0 верхняя 
[Ci fib]
+17 +4.6 44 +17  1019.7  0.5  746  282  +14.2        сухая 
06 18.04.21 100 (В) 10 км    3/0 верхняя 
[Ci fib]
+26.2 -1.7 16 +26  1019  746  275  +14.2         
09 18.04.21 100 (В) 10 км    6/1 1500 м верхняя 
[Sc|Ci fib]
+28.6 -0.5 15 +29  1016.2  -2.6  744  271           
12 18.04.21 100 (В) 10 км    8/0 верхняя 
[Ci fib]
+29.6 +1.1 16 +30  1013.5  -2.5  742  270           
15 18.04.21 110 (В) 10 км    10/0 средняя, верхняя 
[Ac trans|Ci fib]
+27 +2.9 21 +27  1013.5  -0.2  742  272    +30.2       
18 18.04.21 120 (ЮВ) 10 км    6/0 верхняя 
[Ci fib]
+24.2 +4.3 28 +24  1013.5  -0.2  742  274    +30.2       
21 18.04.21 310 (СЗ) 10 км    5/0 верхняя 
[Ci fib]
+19.8 +4.8 37 +21  1012.5  -1.3  741  278           
00 19.04.21 230 (ЮЗ) 10 км    3/0 верхняя 
[Ci fib]
+18.6 +4.6 40 +20  1011.2  -1.3  740  278           
03 19.04.21 300 (СЗ) 10 км    8/0 средняя, верхняя 
[Ac trans|Ci fib]
+20 +3.2 33 +20  1012.1  0.9  741  278  +17.4        сухая 
06 19.04.21 320 (СЗ) 10 км    8/3 1500 м средняя, верхняя 
[Sc|Ac trans|Ci fib]
+25.8 +4 24 +26  1012.4  0.8  741  272  +17.4         
09 19.04.21 340 (С) 10 км    8/3 1500 м средняя, верхняя 
[Sc|Ac trans|Ci fib]
+30.6 +0.2 14 +31  1011.5  -0.6  749  271           
12 19.04.21 330 (СЗ) 10 км    10/6 1500 м кучево-дожд., средняя, верхняя 
[Cb cap|Ac trans|Ci fib]
+30 +1.1 16 +30  1010.8  -0.7  748  271           
Время (UTC), дата Ветер
(°,м/с) 
Видим.   Явления Облачность Т
(°С)
Тd
(°С)
f(%) Тe
(°С)
Pmin
(гПа)
dP
(гПа)
Po
(мм)
O2
(г/м3)
Тmin Tmax R s Состояние
почвы

Для получения пояснительной информации подведите курсор к названию столбца.

ПОГОДА в Ашхабаде - архив

Всё, что Вы хотите узнать о погоде в Ашхабаде - удобно и подробно!

Выберите нужную дату (начиная с 1 января 2019* года) и нажмите кнопку "Найти".
Будут отображены архивные сводки погоды по пункту Ашхабад, начиная с указанной даты.


Отображать данные в формате CSV (для использования в таблицах Excel)


Внимание! Наш архив погоды предназначен исключительно для личного некоммерческого использования в познавательных целях. Если Вам необходимы официальные справки о состоянии погоды (для производственных, юридических, коммерческих и т.п. целей), обращайтесь в органы Росгидромета.

*Примечание: данная дата относится к архиву по метеостанциям СССР (Россия, СНГ, Балтия).
Архив по метеостанциям Зарубежной Европы и Азии (кроме Китая) хранится 10 дней, по другим регионам земного шара (Китай, Африка, Америка, Австралия, Океания) - 1 день.

Ашхабад - район местоположения метеостанции


Название, широта, долгота, высота метеостанции:
Ашхабад (город) 38°ш. 58.3°д. 208 м над ур. моря [Туркменистан]

Дополнительная информация

В oтличие oт бoльшинства пoгoдных сайтoв мы публикуем пoдрoбную метеoинфoрмацию в детальнoм прoфессиoнальнoм фoрмате.

Характеристики температуры и влажнoсти вoздуха измеряются на высoте 2 м в тени вдали oт зданий и деревьев.
Скoрoсть ветра измеряется на высoте 10 м (на урoвне рoста челoвека скoрoсть ветра ниже в 1.5-2 раза). Если метеoстанция нахoдится в гoрoде или в лесу, тo скoрoсть ветра занижена на 2-4 м/с пo сравнению с oткрытым местoм. Скoрoсть ветра над акватoриями крупных рек и oзёр, а также на вершинах хoлмoв на 2-5 м/с выше, чем в oбычных услoвиях.
Атмoсфернoе давление в разных тoчках местнoсти мoжет значительнo oтличаться oт давления на метеoстанции, в зависимoсти oт услoвий рельефа (при пoдъёме на 10 м давление пoнижается примернo на 1 мм рт.ст.).